Regional Weather Roundup
Issued by NWS

Home | Current Version | Previous Version | Text Only | Print | Product List | Glossary Off
Versions: 1 2 3 4 5 6 7 8 9 10 11 12 13 14 15 16 17 18 19 20 21 22 23 24 25 26 27 28 29 30 31 32 33 34 35 36 37 38 39 40 41 42 43 44 45 46 47 48 49 50

774
ASUS44 KLIX 010805
RWRLA
LOUISIANA WEATHER ROUNDUP
NATIONAL WEATHER SERVICE NEW ORLEANS LA
300 AM CDT WED OCT 01 2014

NOTE: "FAIR" INDICATES FEW OR NO CLOUDS BELOW 12,000 FEET WITH NO
      SIGNIFICANT WEATHER AND/OR OBSTRUCTIONS TO VISIBILITY.
      SKY/WX - SKY CONDITION AND SIGNIFICANT WEATHER.
      TMP - AIR TEMPERATURE.    DP   - DEWPOINT TEMPERATURE.
      RH  - RELATIVE HUMIDITY.  PRES - PRESSURE.
      HX  - HEAT INDEX.         WCI  - WIND CHILL INDEX.

*  THESE STATIONS ARE NOT NWS OR FAA STATIONS AND ARE NOT UNDER
   NWS QUALITY CONTROL.

LAZ040-048-061>063-065-066-069-010900-
SOUTHEAST LOUISIANA

CITY           SKY/WX    TMP DP  RH WIND       PRES   REMARKS
N.O. AUDUBON     N/A     76  75  98 MISG        N/A
N.O. INTL ARPT PTCLDY    75  71  87 CALM      29.87F
N.O. LAKEFRONT CLEAR     76  72  87 SE5       29.88F
N.O. DOWNTOWN* FAIR      77  70  78 SE6       29.88F
SLIDELL        CLEAR     69  66  90 CALM      29.88F
BATON ROUGE    CLEAR     73  71  93 E5        29.88S
BOOTHVILLE     CLEAR     77  74  90 E5        29.88F
BELLE CHASSE   CLEAR     74  70  87 CALM      29.87F
BOGALUSA*      FOG       69  66  91 CALM      29.91S VSB 1/4
GALLIANO*      NOT AVBL
NEW ROADS*     FAIR      73  72  98 CALM      29.87S FOG
GONZALES*      FAIR      74  74  99 CALM      29.87S
HAMMOND*       CLEAR     70  68  94 CALM      29.90S
HOUMA*         CLEAR    N/A N/A N/A CALM      29.87S
PORT FOURCHON* PTSUNNY   81  73  78 SE8       29.90S

$$

LAZ041-044-053-054-010900-
SOUTHWEST LOUISIANA

CITY           SKY/WX    TMP DP  RH WIND       PRES   REMARKS
LAKE CHARLES   CLEAR     75  74  96 E5        29.83S FOG
LAFAYETTE      CLEAR     75  74  96 CALM      29.86R FOG
PATTERSON      CLEAR     73  73 100 E5        29.88F
SALT POINT       N/A     79  76  90 CALM      29.85S
NEW IBERIA     CLEAR     76  74  93 E7        29.86S
CHENAULT AIRPK FOG       74  73  99 E5        29.84S VSB 1

$$

LAZ027-028-010900-
CENTRAL LOUISIANA

CITY           SKY/WX    TMP DP  RH WIND       PRES   REMARKS
FORT POLK      CLOUDY    73  73 100 SE7       29.85S
ALEXANDRIA INT MOCLDY    74  72  93 SE5       29.84S
ALEXANDRIA     PTCLDY    72  70  93 SE5       29.86S

$$

LAZ001-002-010900-
NORTHWEST LOUISIANA

CITY           SKY/WX    TMP DP  RH WIND       PRES   REMARKS
SHREVEPORT     MOCLDY    75  70  84 S3        29.83R
BARKSDALE AFB  PTCLDY    73  69  87 S5        29.83S
DTN SHREVEPORT PTCLDY    76  69  79 S6        29.83R

$$

LAZ014-016-010900-
NORTHEAST LOUISIANA

CITY           SKY/WX    TMP DP  RH WIND       PRES   REMARKS
MONROE         MOCLDY    75  68  78 S6        29.86S
TALLULAH       MOCLDY    75  69  81 S8        29.87S

$$




USA.gov is the U.S. government's official web portal to all federal, state and local government web resources and services.